ロニオス彗星

P/1999 RO28 ( LONEOS ) 2006

English version
Home page
Updated on June 12, 2026

---------------------------------------------------------------------

・ プロフィール

・ 軌道要素

                    Epoch = 2006 May  25.0 TT
     T = 2006 May  13.54410 TT        Peri. = 219.96827
     e = 0.6514622                    Node  = 148.37054 2000.0
     q = 1.2277922 AU                 Incl. =   8.18505
       a =  3.5226943 AU   n = 0.14907048   P =   6.61 years

・ 光度変化

        m1 = 20.5 + 5 logΔ + 10.0 log r

---------------------------------------------------------------------

軌道要素は、CBET 5702に掲載されたものです。
光度グラフはComet for Windowsで作成したものです。

---------------------------------------------------------------------

Copyright(C) Seiichi Yoshida (comet@aerith.net). All rights reserved.